METOP-SGA1

Last updated on Wed Sep 23 2026 00:03:10 GMT+0000 (Coordinated Universal Time)

1 65159U 25172A 26265.09631832 .00000005 00000+0 22199-4 0 9997 2 65159 98.7067 323.0608 0000858 97.2110 262.9165 14.21503669 57558
UTC large
Height (km)
Speed (km/s)
/
Latitude / Longitude
Inclination (degrees)
Orbital Period (minutes)
Azimuth
Elevation
Range (km)
Doppler Factor

Next 0 passes for location: London (51.5072 / 0.1276)

No passes found over London.
METOP-SGA1